Helicity
94 96 88 82 83 83 83 77 66 55 42 35 27 35 46 52 54 64 71 82 71 64
91 84 83 82 82 89 84 73 54 61 53 38 39 44 46 48 65 70 77 74 75 67
87 90 89 84 80 75 76 69 48 41 54 41 32 37 43 50 54 64 76 75 77 68
91 91 86 85 79 68 61 58 55 50 37 45 43 28 29 37 39 48 66 79 70 64
94 87 88 84 71 56 50 44 52 47 46 42 38 36 30 31 37 38 48 59 59 59
91 87 84 85 70 62 44 41 47 50 49 42 38 34 33 30 35 38 39 44 48 53
90 89 91 85 78 62 48 45 52 54 58 60 51 40 35 37 39 42 47 52 51 49
85 89 88 95 78 65 57 56 52 57 64 61 57 61 46 48 50 46 47 45 45 43
95 93 100 90 79 72 66 66 58 62 61 61 65 18 25 36 48 50 45 46 47 45
95 98 96 90 84 78 74 70 65 69 67 63 59 19 30 32 44 45 56 64 65 65
99 100 92 86 85 78 70 64 65 72 73 70 78 22 32 37 42 32 18 36 52 70
100 99 90 85 77 69 59 63 69 61 52 60 58 29 38 42 42 39 36 40 51 67
97 98 95 86 75 89 78 72 69 57 47 28 24 37 43 35 33 41 43 39 43 35
99 100 95 96 98 93 85 69 66 66 48 50 45 44 39 26 15 23 39 53 64 70
Wind_Speed
80 80 80 76 76 73 69 64 68 72 76 78 78 78 77 75 76 75 75 76 75 75
80 81 80 76 73 69 63 53 61 67 71 76 76 74 74 75 76 75 75 76 76 76
81 78 76 75 74 72 66 57 55 54 61 70 75 73 72 73 73 75 74 75 75 73
79 76 76 74 74 76 75 72 66 54 42 58 69 73 74 73 74 74 73 73 74 75
77 77 76 74 77 80 81 78 71 70 67 68 66 70 74 75 74 74 75 74 75 76
78 77 78 76 79 80 81 81 76 73 69 69 71 75 74 77 75 74 74 74 76 76
77 78 78 78 79 82 83 82 79 74 71 71 71 73 75 74 76 76 75 73 74 76
77 77 77 79 83 83 83 81 79 76 74 72 72 71 71 71 73 75 76 75 73 73
79 80 81 86 87 87 84 82 79 76 75 77 75 76 78 77 76 75 75 77 76 76
81 85 89 90 90 90 89 84 81 78 75 75 76 79 78 76 75 75 75 77 75 75
87 90 90 90 90 90 87 85 82 77 72 73 72 78 78 78 76 77 79 78 77 77
86 87 89 91 92 90 87 84 79 73 72 72 77 80 80 80 77 77 79 78 77 77
84 84 87 87 87 83 82 81 77 76 75 76 82 81 80 77 74 75 74 74 74 79
83 82 79 79 77 79 78 78 80 80 76 75 74 75 76 76 76 76 77 76 73 71
Wind_Direction
339 337 336 336 335 334 334 333 329 321 313 306 302 299 294 291 289 286 283 280 277 275
339 337 337 336 336 335 336 338 334 327 320 309 303 301 296 291 288 285 282 278 276 274
338 338 338 337 335 334 335 338 338 336 329 317 304 301 298 292 288 284 282 279 276 275
339 340 338 337 335 331 329 330 332 337 339 329 313 301 296 292 287 283 281 278 275 274
341 340 337 337 333 328 325 324 327 326 326 321 319 310 297 291 289 284 281 278 275 272
341 339 337 336 332 329 325 321 322 323 323 321 316 307 302 291 288 286 282 278 274 271
341 339 337 335 333 328 324 321 320 321 321 320 316 310 302 297 290 285 281 279 275 271
340 338 337 335 331 328 325 323 321 320 319 318 315 311 304 298 292 287 282 278 276 272
339 337 335 332 329 327 326 324 322 320 317 314 312 307 299 295 291 287 283 278 275 271
339 336 333 331 328 326 325 324 320 318 317 314 311 305 300 296 292 286 283 278 276 272
337 335 333 331 329 327 325 322 320 318 317 315 313 305 299 296 292 285 278 276 274 270
339 336 334 331 329 327 324 322 320 319 317 314 309 299 292 288 287 283 278 275 272 268
339 338 335 333 331 329 326 322 320 316 313 309 299 293 284 283 287 283 280 276 272 265
341 339 338 337 335 332 328 322 312 307 311 310 308 300 289 286 284 282 278 274 272 268